Cloud_Cover
5 32 48 5 5 5 5 26 38 5 1 5 4 4 0 0 0 0 0 0 0 0 0 0 0 0 0 5 5 4 5 36 34 73 100 100 100 100 100 20 5 13 49 33
10 9 5 5 5 6 29 99 42 2 3 5 3 5 1 1 1 2 0 0 0 0 0 0 0 0 0 5 20 5 5 1 42 41 15 50 9 48 76 51 8 60 1 52
28 4 5 5 45 100 43 61 5 39 45 5 12 63 4 5 4 0 0 0 0 0 0 0 0 0 0 0 9 78 5 9 18 55 89 100 100 98 100 62 98 80 68 88
11 4 5 5 70 83 94 32 98 100 100 100 94 66 98 96 98 10 5 4 20 4 0 0 0 0 0 0 5 8 6 0 46 74 91 100 100 100 47 54 44 100 100 100
4 5 37 76 99 100 98 99 100 100 100 100 87 100 100 100 94 98 83 36 100 97 86 1 0 1 17 83 64 32 23 10 92 99 100 78 54 36 27 36 82 100 100 80
100 81 75 100 93 100 100 100 100 100 100 100 100 100 100 100 100 100 100 100 100 100 95 100 86 31 14 50 77 36 2 36 20 24 20 30 42 63 77 98 100 100 95 97
100 56 6 68 95 100 100 100 100 100 100 100 99 100 100 100 100 100 100 100 100 100 100 100 100 100 100 65 92 84 81 79 76 36 36 41 100 100 71 100 100 100 100 100
100 100 100 100 100 100 100 100 100 100 100 100 100 100 100 100 100 100 100 100 100 100 100 100 100 100 100 100 100 100 99 100 100 100 99 100 100 100 100 100 100 100 100 100
99 100 100 100 100 100 100 100 100 100 100 100 100 100 100 100 100 100 100 100 100 100 100 100 100 100 100 100 100 100 100 100 100 100 100 100 100 100 100 100 100 100 100 100
92 100 100 100 100 100 100 100 100 100 100 100 100 100 100 100 100 100 100 100 100 100 100 100 100 100 100 100 100 100 100 100 100 100 100 100 100 100 100 100 100 100 100 100
8 47 100 93 66 91 64 16 49 21 100 100 100 100 100 100 100 100 100 100 100 100 100 100 100 100 100 100 100 100 100 100 100 100 100 100 100 100 100 100 100 100 100 100
5 42 16 31 6 22 10 68 5 89 59 95 100 100 100 100 100 100 100 100 100 100 100 100 100 100 100 100 100 100 100 100 100 100 100 100 100 100 100 100 100 100 100 100
3 4 5 0 2 0 4 53 92 44 33 96 21 98 100 100 100 100 100 100 85 100 100 100 93 100 100 100 100 100 100 100 100 100 100 100 100 100 100 100 100 100 100 100
2 0 0 3 0 0 0 1 64 70 99 76 16 25 96 100 100 100 71 16 100 100 77 100 100 100 100 100 100 100 100 100 100 100 100 100 100 100 100 100 100 100 100 100
0 2 0 1 0 0 0 0 0 1 2 12 80 36 100 100 100 100 39 39 100 100 83 100 100 100 100 100 100 100 100 100 100 100 98 91 100 100 100 100 100 100 100 100
0 0 0 4 0 0 0 0 0 0 0 3 5 12 99 100 100 100 100 100 63 100 36 68 86 15 21 100 100 100 100 100 100 100 100 100 100 100 100 100 100 100 100 100
0 5 5 1 3 3 0 0 0 0 0 0 1 11 73 94 100 100 100 100 100 100 100 99 60 100 64 100 82 98 76 100 100 100 97 100 100 100 100 100 100 100 100 100
5 11 35 20 6 5 5 5 5 3 0 0 0 0 0 0 3 5 10 15 73 100 100 100 100 100 100 98 100 53 64 36 100 84 37 63 98 76 99 100 92 100 90 100
0 0 2 3 3 3 5 5 5 5 5 5 5 2 0 0 0 0 6 57 5 5 66 95 100 99 100 100 100 100 95 21 58 48 76 82 82 99 84 100 56 39 9 6
0 0 0 0 0 1 0 0 0 1 5 5 6 5 5 5 4 3 0 0 0 0 4 5 19 40 18 54 97 100 98 44 42 66 50 9 12 13 29 30 5 5 5 5
0 0 4 4 3 4 5 5 2 0 0 0 0 4 19 5 5 5 3 1 0 0 0 0 0 0 0 1 7 37 26 58 25 10 35 7 5 5 5 5 5 5 5 5
0 4 4 3 1 1 1 4 5 5 1 0 0 0 0 4 5 5 10 5 16 16 5 5 4 3 3 3 1 5 5 5 5 5 5 5 5 5 5 5 5 6 56 88
0 5 5 5 3 4 0 3 3 5 5 5 0 0 0 5 5 5 5 5 1 0 0 0 1 5 5 5 5 5 5 5 5 5 5 5 5 5 80 99 100 100 100 100
6 81 100 100 13 100 30 5 5 5 1 0 4 4 0 0 0 0 4 5 4 5 5 1 0 5 5 5 5 5 5 5 5 5 5 9 84 100 100 100 100 100 100 100
12 39 34 99 8 5 14 89 69 28 5 5 5 4 1 1 3 5 4 3 3 3 3 1 3 5 5 5 5 5 5 5 5 34 92 100 100 100 100 100 100 100 100 100
3 5 5 98 36 98 36 56 65 14 12 5 5 5 5 5 5 5 5 4 1 0 0 2 5 5 5 5 5 5 5 5 24 100 100 100 100 100 100 100 100 94 100 99